Bakersfield, CA

7:56 PM PDT on April 26, 2018 (GMT -0700)
Meadows

Weather History for KBFL - October, 2011

Change the Weather History Date:

Friday, October 7, 2011

  Actual Average Record
Temperature  
Mean Temperature 57 °F 71 °F  
Max Temperature 68 °F 83 °F 99 °F (1953)
Min Temperature 46 °F 58 °F 38 °F (1908)
Degree Days  
Heating Degree Days 8    
Month to date heating degree days 18  
Since 1 July heating degree days 18  
Cooling Degree Days 0    
Month to date cooling degree days 22  
Year to date cooling degree days 2110  
Growing Degree Days 7 (Base 50)    
Moisture  
Dew Point 46 °F    
Average Humidity 68    
Maximum Humidity 93    
Minimum Humidity 42    
Precipitation  
Precipitation 0.00 in 0.00 in 0.29 in (1923)
Month to date precipitation 0.55 0.03  
Year to date precipitation 3.63 4.54  
Since 1 July precipitation 0.55  
Snow  
Snow 0.00 in - - ()
Month to date snowfall 0.0  
Since 1 July snowfall 0.0  
Since 1 September snowfall 0.0  
Snow Depth 0.00 in    
Sea Level Pressure  
Sea Level Pressure 30.12 in    
Wind  
Wind Speed 4 mph (NE)    
Max Wind Speed 10 mph    
Max Gust Speed 13 mph    
Visibility 9 miles    
Events      
T = Trace of Precipitation, MM = Missing Value Source: NWS Daily Summary

Daily Weather History Graph

Daily Weather History Graph

Search for Another Location

Airport or City:

Astronomy

Oct. 07, 2011 Rise Set
Actual Time 6:55 AM PDT 6:31 PM PDT
Civil Twilight 6:30 AM PDT 6:57 PM PDT
Nautical Twilight 6:00 AM PDT 7:26 PM PDT
Astronomical Twilight 5:31 AM PDT 7:56 PM PDT
Moon 4:10 PM PDT (10/7) 2:57 AM PDT (10/7)
Length of Visible Light 12h 26m
Length of Day
11h 36m
Waxing Gibbous, 84% of the Moon is Illuminated
Oct 7
Waxing Gibbous
Oct 11
Full
Oct 19
Last Quarter
Oct 26
New
Nov 2
First Quarter

Hourly Weather History & Observations

Time (PDT) Temp. Dew Point Humidity Pressure Visibility Wind Dir Wind Speed Gust Speed Precip Events Conditions
12:54 AM 50.0 °F 46.0 °F 86% 30.05 in 10.0 mi NNW 4.6 mph - N/A   Clear
1:54 AM 51.1 °F 46.0 °F 83% 30.07 in 10.0 mi North 6.9 mph - N/A   Mostly Cloudy
2:54 AM 51.1 °F 46.0 °F 83% 30.08 in 10.0 mi West 4.6 mph - N/A   Clear
3:54 AM 48.9 °F 46.0 °F 90% 30.09 in 10.0 mi Calm Calm - N/A   Clear
4:54 AM 48.0 °F 45.0 °F 89% 30.09 in 9.0 mi NNW 5.8 mph - N/A   Clear
5:54 AM 48.9 °F 46.0 °F 90% 30.12 in 9.0 mi Calm Calm - N/A   Scattered Clouds
6:54 AM 50.0 °F 46.0 °F 86% 30.14 in 10.0 mi Calm Calm - N/A   Partly Cloudy
7:54 AM 50.0 °F 46.9 °F 89% 30.17 in 7.0 mi Calm Calm - N/A   Overcast
8:47 AM 53.6 °F 48.2 °F 82% 30.18 in 9.0 mi SSE 8.1 mph - N/A   Scattered Clouds
8:54 AM 53.1 °F 48.9 °F 86% 30.18 in 9.0 mi SSE 6.9 mph - N/A   Partly Cloudy
9:37 AM 53.6 °F 48.2 °F 82% 30.19 in 7.0 mi ESE 9.2 mph - N/A   Mostly Cloudy
9:54 AM 54.0 °F 48.9 °F 83% 30.18 in 6.0 mi SSE 8.1 mph - N/A   Haze
10:41 AM 55.4 °F 48.2 °F 77% 30.18 in 6.0 mi ESE 4.6 mph - N/A   Haze
10:54 AM 55.9 °F 48.9 °F 77% 30.17 in 7.0 mi South 4.6 mph - N/A   Partly Cloudy
11:54 AM 60.1 °F 46.9 °F 62% 30.16 in 9.0 mi Variable 3.5 mph - N/A   Clear
12:54 PM 64.0 °F 43.0 °F 46% 30.14 in 10.0 mi Calm Calm - N/A   Clear
1:54 PM 66.2 °F 42.8 °F 43% 30.12 in 10.0 mi Variable 5.8 mph - N/A   Clear
2:54 PM 66.9 °F 42.1 °F 40% 30.10 in 10.0 mi Calm Calm - N/A   Clear
3:54 PM 66.9 °F 43.0 °F 42% 30.09 in 10.0 mi Variable 3.5 mph - N/A   Clear
4:54 PM 66.9 °F 43.0 °F 42% 30.08 in 10.0 mi WNW 8.1 mph - N/A   Clear
5:54 PM 64.9 °F 44.1 °F 47% 30.09 in 10.0 mi NW 8.1 mph - N/A   Clear
6:54 PM 61.0 °F 45.0 °F 56% 30.10 in 10.0 mi NNW 4.6 mph - N/A   Clear
7:54 PM 60.1 °F 45.0 °F 57% 30.10 in 10.0 mi NE 4.6 mph - N/A   Clear
8:54 PM 57.0 °F 46.0 °F 67% 30.11 in 10.0 mi NE 4.6 mph - N/A   Clear
9:54 PM 55.9 °F 46.0 °F 69% 30.11 in 10.0 mi NE 6.9 mph - N/A   Clear
10:54 PM 57.2 °F 46.4 °F 67% 30.12 in 10.0 mi East 3.5 mph - N/A   Clear
11:54 PM 55.4 °F 46.4 °F 72% 30.12 in 10.0 mi Calm Calm - N/A   Clear